Starlink 32551

operational
NORAD ID: 62166 Int'l Des: 2024-225 Owner: SPXS Country: US Constellation: starlink
LEOCIRCULAR

Über Starlink 32551

Beschreibung wird geladen...

Live-Position

3D-Globus wird geladen...

Nächste Überflüge

Höhenverlauf

Altitude vs Time

uPlot chart will show altitude changes over time

Zweizeiliger Elementsatz

1 62166U 24225D 25350.35236019 .00005045 00000-0 43023-3 0 9999
2 62166 70.0023 14.5143 0003202 271.0968 88.9824 14.98339826 57399
Epoch: 16. Dez. 2025 • Age: 19 hours

Aktueller Status

Höhe 594.1 km
Geschwindigkeit 7.56 km/s
Subsatellitenpunkt -65.43°S, 176.05°W
Startdatum 30. Nov. 2024
Alter 1 years
Typ internet

Technische Details

Klassifizierung Payload
Masse 730.00 kg
Trockenmasse 700.00 kg
Gesamtmasse 730.00 kg
Länge 0.30 m
Durchmesser 4.10 m
Spannweite 29.00 m
Form Box + pan
Hersteller SPXS
Bus-Typ Starlink V2M
Phasenstatus In Orbit
Besitzer/Staat SPXS/US

Große Konstellationen

Loading constellations...